Tracking 19969 objects as of 13-Nov-2019
Live streaming from Space Station
objects crossing your sky now
Track the group of recently launched Starlink satellites

NOAA 16 DEB

Track NOAA 16 DEB now!
10-day predictions


NORAD ID: 41295
Int'l Code: 2000-055GX
Perigee: 852.0 km
Apogee: 894.0 km
Inclination: 98.8 °
Period: 102.3 minutes
Semi major axis: 7244 km
RCS: Unknown
Launch date: September 21, 2000
Source: United States (US)
Launch site: AIR FORCE WESTERN TEST RANGE (AFWTR)

Note: This is SATELLITE DEBRIS
aabbcc
Your satellite tracking list
Your tracking list is empty




NASA's NSSDC Master Catalog

Two Line Element Set (TLE):
1 41295U 00055GX  19317.36934035  .00000664  00000-0  41368-3 0  9996
2 41295  98.8095  14.9877 0028961 199.0920 160.9166 14.08104255200005
Source of the keplerian elements: AFSPC